CW1793 Weather Reports


Display with metric or nautical units.
time (UTC)temp
F
wind
direction
speed
MPH
gust
MPH
rain 1hr
in
rain 24hr
in
rain mn
in
humidity
%
barometer
mb
20260505124509 36 286 10.0 16.0 0.04 0.16 0.08 94 1007.7
20260505123007 36 290 10.0 17.0 0.05 0.15 0.07 94 1007.4
20260505121504 37 311 12.0 18.0 0.06 0.15 0.07 94 1007.5
20260505120114 37 315 12.0 17.0 0.06 0.14 0.06 93 1007.3
20260505114558 38 317 13.0 20.0 0.04 0.12 0.04 93 1007.1
20260505113056 40 317 11.0 16.0 0.02 0.10 0.02 93 1006.9
20260505111551 40 294 7.0 16.0 0.01 0.09 0.01 93 1006.8
20260505101545 42 9 0.0 3.0 0.00 0.08 0.00 92 1005.8
20260505100042 42 288 1.0 4.0 0.00 0.08 0.00 92 1005.6
20260505094540 42 333 1.0 5.0 0.00 0.08 0.00 92 1005.1
20260505093037 43 88 2.0 3.0 0.00 0.08 0.00 92 1005.5
20260505091538 43 88 2.0 6.0 0.00 0.08 0.00 92 1005.6
20260505090036 43 88 3.0 6.0 0.00 0.08 0.00 92 1005.6
20260505084542 43 80 2.0 6.0 0.00 0.08 0.00 92 1005.5
20260505083031 43 106 5.0 9.0 0.00 0.08 0.00 92 1005.5
20260505081528 44 94 4.0 8.0 0.00 0.08 0.00 92 1005.9
20260505080025 44 116 3.0 5.0 0.00 0.08 0.00 92 1006.1
20260505074524 44 151 2.0 5.0 0.00 0.08 0.00 92 1006.1
20260505073033 44 154 4.0 8.0 0.00 0.08 0.00 92 1006.2
20260505071521 44 146 1.0 9.0 0.00 0.08 0.00 92 1006.4
20260505070029 44 150 3.0 5.0 0.00 0.08 0.00 91 1006.7
20260505064515 45 88 0.0 0.0 0.01 0.08 0.00 92 1006.8
20260505063015 45 88 0.0 0.0 0.01 0.08 0.00 91 1006.9
20260505061519 44 88 0.0 1.0 0.02 0.08 0.00 91 1006.7
20260505060010 44 88 0.0 3.0 0.02 0.08 0.00 91 1006.8
20260505054510 45 96 3.0 8.0 0.02 0.07 0.07 90 1006.8
20260505053012 44 267 0.0 6.0 0.03 0.07 0.07 90 1006.5
20260505051513 44 296 4.0 11.0 0.02 0.06 0.06 90 1006.7
20260505041605 46 311 0.0 5.0 0.04 0.04 0.04 85 1006.6
20260505040058 47 261 2.0 5.0 0.02 0.02 0.02 82 1006.5
20260505034554 48 257 3.0 10.0 0.00 0.00 0.00 77 1006.5
20260505033052 50 249 7.0 10.0 0.00 0.00 0.00 67 1006.0
20260505031602 49 248 3.0 5.0 0.00 0.00 0.00 64 1005.8
20260505030050 49 50 0.0 0.0 0.00 0.00 0.00 65 1005.6
20260505024558 49 50 0.0 3.0 0.00 0.00 0.00 64 1005.6
20260505023049 50 301 0.0 3.0 0.00 0.00 0.00 65 1005.1
20260505021553 50 301 1.0 2.0 0.00 0.00 0.00 65 1005.0
20260505020047 50 301 1.0 4.0 0.00 0.00 0.00 64 1005.1
20260505014603 51 304 2.0 6.0 0.00 0.00 0.00 63 1004.8
20260505013049 52 324 7.0 18.0 0.00 0.00 0.00 60 1004.8
20260505011555 53 292 2.0 11.0 0.00 0.00 0.00 53 1004.7
20260505010042 54 338 8.0 17.0 0.00 0.00 0.00 50 1004.6
20260505004543 55 250 3.0 7.0 0.00 0.00 0.00 45 1004.2
20260505003040 55 236 4.0 8.0 0.00 0.00 0.00 45 1003.9
20260505001540 55 137 7.0 10.0 0.00 0.00 0.00 46 1003.9
20260505000050 55 154 8.0 15.0 0.00 0.00 0.00 45 1003.6
20260504234546 55 114 13.0 21.0 0.00 0.00 0.00 45 1003.6
20260504233100 59 355 6.0 27.0 0.00 0.00 0.00 41 1003.2
20260504231538 60 30 4.0 17.0 0.00 0.00 0.00 33 1003.0
20260504230038 61 51 7.0 15.0 0.00 0.00 0.00 31 1002.1
20260504224539 64 360 4.0 16.0 0.00 0.00 0.00 26 1001.7
20260504223053 65 25 4.0 9.0 0.00 0.00 0.00 26 1001.5
20260504221537 65 36 1.0 10.0 0.00 0.00 0.00 25 1001.6
20260504220033 66 355 4.0 9.0 0.00 0.00 0.00 25 1001.6
20260504214532 65 292 5.0 11.0 0.00 0.00 0.00 24 1001.8
20260504213045 67 5 10.0 14.0 0.00 0.00 0.00 25 1001.8
20260504211534 67 346 5.0 13.0 0.00 0.00 0.00 26 1001.9
20260504210030 69 5 8.0 15.0 0.00 0.00 0.00 23 1002.0
20260504204540 71 35 7.0 17.0 0.00 0.00 0.00 22 1002.1
20260504203026 70 49 8.0 19.0 0.00 0.00 0.00 23 1002.1
20260504201527 68 5 3.0 16.0 0.00 0.00 0.00 24 1002.4
20260504200025 68 5 5.0 15.0 0.00 0.00 0.00 24 1002.5
20260504194523 68 40 6.0 19.0 0.00 0.00 0.00 24 1002.5
20260504193025 68 355 7.0 17.0 0.00 0.00 0.00 23 1002.5
20260504191524 69 17 9.0 17.0 0.00 0.00 0.00 24 1002.2
20260504190022 67 9 11.0 19.0 0.00 0.00 0.00 22 1002.2
20260504184521 69 350 3.0 10.0 0.00 0.00 0.00 21 1002.3
20260504183019 70 53 1.0 14.0 0.00 0.00 0.00 19 1002.5
20260504181517 68 334 4.0 17.0 0.00 0.00 0.00 21 1002.5
20260504180017 68 311 2.0 16.0 0.00 0.00 0.00 22 1002.7
20260504174512 67 300 2.0 8.0 0.00 0.00 0.00 22 1003.2
20260504173008 67 306 10.0 17.0 0.00 0.00 0.00 22 1003.6
20260504171506 67 270 10.0 18.0 0.00 0.00 0.00 22 1003.9
20260504160104 65 302 8.0 16.0 0.00 0.00 0.00 22 1004.3